スキッフ彗星

C/2007 B2 ( Skiff )

English version
Home page
Updated on February 7, 2017

---------------------------------------------------------------------

・ プロフィール

発見日 2007年1月23日
発見光度 18.1等
発見者 B. A. Skiff (Lowell Observatory)

・ 写真集

・ 軌道要素

The following orbital elements are taken from MPC 66700:

Epoch 2008 Aug. 2.0 TT = JDT 2454680.5
T 2008 Aug. 20.8724 TT                                  MPC
q   2.974836             (2000.0)            P               Q
z  +0.001394       Peri.  206.0053      -0.7688582      +0.6283479
 +/-0.000000       Node    14.8689      -0.4759580      -0.4386689
e   0.995852       Incl.   27.4964      -0.4269908      -0.6424551
From 1445 observations 2007 Jan. 23-2009 July 28, mean residual 0".5.

・ 星図

・ 光度変化

        m1 = 6.7 + 5 logΔ + 10.0 log r

---------------------------------------------------------------------

軌道要素はMPCのEphemerides and Orbital Elementsに掲載されたものです。
星図は StellaNavigator Ver.2.0 for Windows (アストロアーツ 編著 / アスキー出版局刊) で作成したものです。
光度グラフはComet for Windowsで作成したものです。

---------------------------------------------------------------------

Copyright(C) Seiichi Yoshida (comet@aerith.net). All rights reserved.